Theta_e
288 288 288 289 289 289 289 289 290 290 290 290 291 290 290 290 291 291 291 291 291 291 291 291 291 292 292 292 292 293 292 292 293 293 294 295 295 295 296 296 296 296 297 297 296 296 296 296 296 295 295 295 294 294 293 293 293 292 292 292 292 292
287 287 287 288 288 288 289 289 289 288 289 289 289 290 290 290 290 290 290 291 290 290 290 290 290 291 291 291 292 291 291 291 291 291 292 293 293 293 294 294 294 295 295 295 295 295 295 295 295 295 294 294 293 293 292 292 292 291 291 291 291 291
287 287 288 288 289 289 289 289 288 288 288 288 289 288 288 288 289 289 289 290 290 289 289 289 289 289 289 290 291 290 290 291 291 291 291 291 292 292 292 292 293 293 294 294 294 294 294 294 294 294 294 293 292 292 292 292 291 291 291 291 290 291
287 287 288 288 288 288 288 288 288 287 287 288 288 288 288 288 288 288 289 289 290 289 289 289 289 289 289 288 288 288 289 289 290 291 291 290 291 291 291 291 292 292 292 292 293 293 294 294 294 293 293 292 292 291 292 291 291 290 290 290 289 290
287 287 287 287 287 287 287 287 287 287 287 287 287 287 287 288 288 289 289 289 288 288 288 288 288 288 288 288 288 287 288 288 288 290 289 290 290 290 290 290 291 291 291 291 292 292 292 293 293 293 292 292 291 291 291 291 290 289 289 289 289 289
287 287 287 287 287 288 287 287 287 287 286 286 286 286 287 287 288 288 288 288 288 288 287 287 287 287 286 286 287 287 288 288 288 289 288 289 289 288 289 289 289 290 290 290 290 290 291 291 292 292 292 291 291 290 290 290 289 289 289 289 288 289
286 286 287 287 287 287 287 287 287 287 287 286 286 286 287 287 287 287 287 287 287 287 287 287 286 286 286 286 287 287 287 288 288 288 288 288 288 289 288 288 288 288 288 288 289 289 289 289 290 290 290 291 290 290 290 289 289 289 289 288 288 288
286 286 286 287 286 286 287 287 287 287 286 286 286 285 286 287 287 287 287 287 287 287 286 286 286 286 286 286 286 286 287 287 287 287 287 288 287 288 288 288 288 287 287 287 287 287 288 288 288 288 289 289 289 289 289 289 289 288 288 288 288 288
286 286 286 286 286 287 287 287 287 286 286 286 286 286 286 286 287 286 286 286 286 286 285 285 285 286 286 286 286 287 287 287 287 287 286 287 287 287 287 287 288 288 288 288 288 287 287 287 287 287 287 288 288 288 288 288 288 288 288 288 288 288
286 286 286 286 286 287 287 287 287 287 286 286 286 285 285 287 286 285 286 285 285 285 285 285 286 286 286 286 286 286 286 286 287 287 287 287 286 286 286 286 286 287 287 287 287 288 288 287 286 286 287 288 288 287 287 287 287 287 287 287 288 288
286 286 286 286 286 286 286 286 287 287 287 286 286 286 285 285 285 284 285 284 284 284 285 285 286 286 285 285 285 285 285 285 286 287 287 286 286 287 286 286 286 286 286 287 287 287 287 287 287 287 286 286 286 287 287 287 287 287 286 286 287 287
286 285 286 286 286 285 286 286 286 286 286 286 286 286 285 285 284 284 284 283 283 284 284 285 285 285 285 285 284 284 284 284 285 286 286 286 286 286 286 286 285 285 285 286 286 286 287 287 288 287 288 288 286 286 286 286 286 286 286 286 286 286
286 286 285 286 286 286 286 286 286 287 286 286 286 285 285 285 283 283 283 283 284 284 284 284 284 284 284 284 284 283 283 283 284 285 285 285 285 285 285 285 285 285 285 285 285 285 286 287 287 288 290 290 290 288 286 285 285 286 285 285 285 285
285 285 285 285 286 286 286 286 286 286 286 286 286 286 285 284 283 283 283 283 283 283 283 283 283 283 283 283 282 282 281 282 283 284 285 285 285 284 284 284 284 284 284 284 284 284 285 285 287 288 289 289 289 289 287 286 286 285 285 285 285 285
285 285 285 285 286 286 286 287 286 286 286 286 286 286 284 283 283 283 283 283 283 283 283 283 282 282 282 282 281 281 280 280 281 282 284 284 284 284 283 283 283 283 284 284 283 283 284 285 287 287 288 288 288 288 288 287 286 286 285 285 285 285
286 286 286 286 287 287 287 287 286 287 287 286 286 285 284 283 283 283 282 282 282 282 282 282 282 281 281 281 280 280 279 279 279 281 283 284 284 283 282 282 282 283 283 283 283 283 283 283 285 287 287 287 288 288 288 286 286 286 286 286 285 285
286 286 286 286 286 287 287 287 287 287 287 286 285 284 283 283 282 282 282 281 281 281 281 281 281 281 281 280 280 279 278 278 278 279 281 282 282 281 280 281 281 282 282 282 282 282 282 283 285 286 287 287 287 287 287 286 286 286 286 286 286 286
286 286 286 287 287 287 287 287 287 286 285 285 284 284 283 282 282 281 281 281 281 281 281 280 280 280 280 279 279 278 277 277 277 277 279 281 281 280 280 280 280 280 280 280 281 281 281 282 285 285 286 287 287 287 285 285 285 285 285 285 286 286
287 287 287 287 287 287 286 287 286 285 284 283 283 283 282 282 281 280 280 280 280 280 280 280 279 279 279 278 277 276 276 276 276 277 278 279 279 278 278 277 277 278 279 279 279 279 280 281 283 285 285 286 286 286 284 284 284 284 284 285 285 286
287 286 286 285 285 285 284 283 281 281 280 280 280 280 280 280 280 280 280 280 280 280 280 279 279 278 278 277 276 276 276 276 276 276 277 277 276 276 276 276 276 276 277 278 278 279 279 280 282 284 284 285 285 285 283 283 283 283 283 284 285 285
284 284 284 284 282 282 281 281 280 278 277 278 278 278 278 278 279 279 279 279 279 279 279 278 278 278 277 276 276 275 274 274 274 275 276 276 275 274 275 275 274 274 275 276 277 279 279 280 281 283 283 284 285 284 283 283 282 282 282 283 283 285
282 281 281 280 280 280 280 279 278 277 276 276 277 276 276 277 277 278 278 278 278 277 277 277 276 276 276 275 274 274 274 274 274 274 274 274 274 273 273 273 273 272 273 275 276 276 277 277 278 280 283 283 284 285 283 283 282 281 281 282 283 283
279 278 278 278 279 278 278 277 276 275 274 274 274 274 274 275 276 276 276 276 275 275 274 275 275 274 274 274 273 273 273 273 273 273 272 272 271 271 271 270 271 271 271 272 273 273 274 276 277 279 282 283 284 285 284 282 281 281 281 281 282 282
277 277 277 277 276 276 275 275 273 273 272 272 271 272 273 273 273 273 273 273 272 272 272 272 272 272 272 272 272 271 271 272 272 271 271 271 270 269 268 269 269 269 269 270 271 273 274 276 278 278 281 283 284 284 285 282 281 282 281 281 281 282
275 274 274 274 274 274 273 272 271 270 270 269 270 271 271 271 271 270 270 270 269 269 269 269 269 270 270 270 270 270 269 270 269 269 269 268 268 267 267 267 267 268 268 270 271 272 274 275 277 280 280 282 283 284 284 285 283 284 283 281 280 281
272 271 272 272 272 271 271 270 268 268 268 267 269 269 269 268 267 267 267 266 266 266 266 266 267 267 268 268 268 268 267 267 267 267 268 267 267 266 266 267 267 268 268 268 269 272 274 275 277 279 281 281 283 284 284 285 285 285 282 282 281 281
269 269 269 270 269 269 269 269 267 266 265 266 267 266 265 264 264 263 263 262 262 263 263 264 264 264 265 265 266 265 266 266 266 265 266 266 266 266 265 266 267 266 267 268 269 270 272 274 275 277 279 282 283 283 284 284 285 285 285 283 282 283
268 267 267 267 267 267 267 266 265 263 263 264 264 263 262 262 261 260 260 260 261 261 261 261 261 262 263 263 264 264 265 265 265 265 265 265 265 265 265 265 266 266 267 267 268 269 270 272 274 275 277 279 281 282 283 283 284 284 284 284 282 284
265 265 265 263 265 264 264 263 263 263 263 262 262 262 261 260 259 259 259 259 259 260 260 259 260 260 261 262 262 263 264 264 264 264 264 264 264 264 264 265 265 265 266 266 267 268 270 271 272 273 274 276 277 278 280 280 281 282 283 282 282 282
263 263 262 262 262 263 262 262 262 262 262 261 261 260 260 259 259 258 258 258 259 259 259 259 260 260 260 261 261 261 261 262 263 262 262 262 263 262 263 263 264 264 265 265 266 267 268 269 270 271 273 275 276 278 279 279 279 278 279 279 280 280
262 261 261 260 261 261 261 261 261 261 261 261 260 260 258 258 258 258 258 258 258 258 259 259 259 259 259 260 260 260 261 261 261 261 261 262 263 263 262 262 262 263 264 264 265 265 265 266 267 269 274 274 276 275 275 276 277 278 278 279 281 279
261 260 259 260 260 260 260 260 260 260 260 260 259 259 258 258 258 257 257 258 258 258 258 259 259 259 259 259 259 259 260 263 266 264 262 262 266 268 270 269 264 265 265 265 265 266 265 265 267 272 274 275 276 277 278 279 280 281 280 280 281 281
259 259 259 259 260 259 259 259 259 259 259 259 259 259 258 258 257 257 257 257 257 258 258 258 258 258 258 258 259 259 259 259 261 266 267 268 267 268 269 270 271 271 272 268 267 269 273 273 274 275 275 276 277 278 278 279 280 281 282 282 280 278
258 258 258 259 259 258 258 258 258 258 259 259 259 259 258 257 257 256 256 256 257 257 257 257 257 258 258 258 259 258 258 258 258 259 264 267 268 268 269 269 270 270 271 271 270 269 268 272 274 275 276 276 277 277 278 279 280 280 281 282 282 278
258 258 258 258 258 258 258 257 258 258 258 259 258 258 257 257 256 256 256 256 256 257 257 257 257 257 258 258 258 258 258 258 258 257 258 261 266 267 268 268 269 270 270 270 271 271 271 271 272 273 274 275 276 277 278 279 280 280 280 281 279 278
258 258 257 257 257 257 257 257 257 258 258 259 259 258 257 256 256 256 256 256 256 256 256 257 257 257 258 258 258 258 258 258 258 258 258 258 258 260 263 266 267 268 269 269 269 270 270 271 271 272 273 274 275 275 276 276 275 279 281 280 277 278
257 257 257 257 257 257 257 257 258 259 259 259 258 257 257 256 256 256 257 257 257 257 257 257 257 258 258 258 258 258 258 258 259 259 258 258 257 257 258 258 260 264 267 265 266 268 270 270 271 272 273 273 274 275 276 276 274 274 275 277 278 278
256 256 256 257 257 257 257 257 259 259 259 259 258 257 256 256 256 256 256 256 257 257 257 257 258 258 258 258 258 258 258 258 258 258 258 258 259 258 258 259 260 261 265 268 269 270 271 271 272 272 273 274 274 275 275 271 271 272 274 275 276 277
Wind_Speed
8 8 8 8 8 9 9 9 9 9 8 8 7 8 8 9 8 8 8 8 7 7 8 9 9 9 9 8 8 7 6 6 6 6 6 7 7 7 6 5 5 6 6 5 6 6 6 7 7 7 7 8 9 9 9 9 10 10 11 11 11 11
6 6 7 8 8 8 8 7 6 9 8 8 8 8 8 9 9 8 7 7 6 6 6 6 7 7 7 7 7 6 6 6 6 6 6 6 6 5 5 5 5 5 6 5 6 7 7 7 7 7 7 7 9 9 8 9 10 12 12 11 10 10
2 3 4 4 5 6 7 7 9 9 9 10 9 9 9 9 8 7 6 6 6 6 8 8 7 8 7 7 6 6 6 6 6 6 5 6 6 6 6 5 4 5 5 6 6 6 7 7 7 7 7 8 8 8 9 9 10 12 12 11 12 11
2 3 4 4 6 6 7 7 6 7 8 7 8 8 8 8 8 7 7 6 6 7 6 6 5 5 6 6 6 7 7 8 7 7 7 7 6 6 7 6 4 3 4 5 6 7 7 7 7 7 7 8 8 9 7 8 10 11 12 11 13 12
3 3 3 4 4 4 5 5 5 5 6 6 6 7 7 7 6 6 6 6 6 6 6 5 5 4 4 4 4 6 6 7 8 8 8 7 7 7 6 6 6 5 5 5 5 6 7 7 8 6 7 8 9 9 9 9 10 11 12 12 14 13
3 2 2 3 2 2 3 2 2 3 3 4 5 5 6 6 6 6 5 5 5 4 5 5 6 6 6 7 6 7 6 6 6 6 7 6 6 7 6 6 6 6 6 6 6 6 7 7 7 7 7 8 8 9 10 10 10 12 13 13 13 13
2 2 2 2 2 2 3 2 2 3 2 3 3 4 4 5 5 5 6 5 6 5 5 5 5 6 7 8 6 7 7 6 6 6 7 7 6 6 6 6 6 6 6 5 6 7 7 7 7 7 7 7 7 9 10 10 10 11 12 13 13 13
2 2 2 1 2 2 2 3 2 3 3 2 2 3 4 5 4 5 5 5 5 5 6 5 5 6 6 7 7 7 7 7 6 6 6 7 7 7 6 7 6 6 7 6 6 6 7 7 7 7 7 7 7 8 9 10 10 11 11 12 13 13
2 2 2 2 2 2 2 3 3 3 3 3 2 3 3 4 4 5 5 5 5 4 5 5 6 6 6 6 6 6 6 6 6 5 6 6 6 6 7 7 6 6 6 7 6 6 6 7 7 8 8 8 8 9 10 10 10 11 11 11 12 12
5 5 6 6 5 5 4 4 4 4 4 4 3 3 3 3 4 5 5 5 5 5 5 5 5 6 6 6 7 6 7 7 6 6 6 6 6 7 7 7 7 7 6 6 6 7 6 6 6 7 7 8 9 9 10 10 11 11 12 12 12 12
5 5 6 6 6 7 8 7 7 6 6 5 5 5 6 6 6 6 6 6 6 6 6 6 5 5 6 6 6 7 8 8 8 8 7 6 6 5 5 6 7 7 7 6 6 6 5 5 6 5 6 6 7 8 10 11 12 12 12 12 12 13
5 5 5 6 6 6 6 6 6 7 7 8 7 7 6 7 7 8 8 8 7 7 7 7 6 6 7 7 7 7 8 8 8 8 8 8 7 7 6 6 6 6 6 7 7 6 5 5 4 7 12 11 8 8 8 9 10 11 13 13 14 13
7 7 7 7 7 7 6 6 6 6 7 7 6 6 6 6 8 8 8 9 8 8 8 8 7 7 7 7 7 5 7 11 9 8 7 7 6 8 7 7 8 6 6 7 7 7 6 5 5 8 9 12 16 12 9 9 10 10 12 13 14 15
8 7 8 8 8 8 7 7 7 6 7 7 6 6 5 5 6 7 8 8 9 9 9 8 8 8 7 7 5 6 7 7 8 8 8 9 8 7 7 9 8 9 8 7 7 7 7 7 8 11 12 13 14 13 10 9 9 9 11 11 13 13
8 8 8 8 7 8 8 8 8 8 8 7 7 5 5 6 6 6 7 7 7 8 8 8 7 6 5 4 4 4 6 8 8 9 8 7 7 8 8 10 10 10 9 8 9 8 8 8 9 12 14 14 14 16 14 9 9 10 10 12 12 13
8 8 8 9 9 9 9 8 8 9 8 8 7 7 7 7 7 7 7 7 7 7 7 8 7 8 8 7 6 5 6 7 8 9 8 9 8 7 8 9 10 9 10 9 10 11 10 9 10 14 14 15 16 16 14 8 10 10 11 13 13 12
10 9 10 10 10 9 8 8 8 8 7 7 7 7 7 7 8 7 7 8 8 7 5 6 7 8 8 8 7 8 9 10 10 10 9 8 7 8 9 10 9 8 9 9 10 10 11 10 15 16 17 17 17 17 15 9 9 10 10 12 12 13
10 10 9 8 8 7 7 8 7 7 7 6 6 7 7 7 6 9 8 8 9 8 8 8 9 9 7 6 6 8 10 10 10 11 11 9 8 8 9 9 8 10 12 11 10 10 12 13 17 17 17 17 17 18 9 8 9 10 10 11 12 12
13 12 11 9 7 6 6 7 6 6 7 7 6 7 8 8 9 9 10 9 10 9 11 11 10 10 9 6 8 10 10 10 11 11 8 10 10 10 10 10 10 10 11 12 12 12 13 12 15 17 17 17 17 13 8 9 9 10 11 12 12 11
11 11 11 12 10 9 8 9 8 8 6 7 8 9 10 10 11 11 10 12 10 12 11 9 9 10 11 10 11 11 8 8 8 10 9 10 10 11 11 10 11 11 11 11 13 12 12 13 15 19 19 20 20 15 10 9 9 10 11 11 12 10
10 11 10 10 10 9 8 8 7 6 7 8 10 9 11 11 12 12 11 12 12 11 10 10 11 12 11 11 11 11 12 13 12 10 10 10 9 10 10 10 10 12 13 13 14 16 16 14 16 20 22 22 21 15 9 9 9 10 11 11 11 11
11 11 11 11 11 11 11 8 7 8 9 10 10 10 10 12 12 12 13 13 12 9 9 11 12 13 12 13 13 12 12 12 12 12 10 9 8 9 10 11 11 14 14 13 13 13 14 15 16 18 24 23 22 20 11 8 8 10 12 11 11 11
8 9 11 10 10 11 10 8 9 10 10 11 11 11 12 12 13 13 12 12 11 11 14 13 13 14 14 13 14 13 13 11 12 12 11 12 9 10 11 13 14 14 15 15 15 15 16 15 16 18 24 24 24 22 17 9 11 12 12 12 11 10
9 10 9 9 10 10 8 9 10 11 11 11 11 12 13 13 13 12 12 12 13 14 14 15 14 14 14 14 13 14 14 13 13 13 13 11 13 15 16 15 14 13 16 16 17 16 17 18 22 18 22 26 26 25 23 14 12 13 12 12 11 11
10 10 11 10 9 9 8 9 11 11 10 11 12 12 11 12 12 13 14 14 16 16 17 16 16 15 13 14 14 15 16 15 14 14 13 14 15 16 18 18 17 16 14 14 13 15 16 16 17 23 20 24 27 27 25 25 19 21 15 12 13 13
9 11 11 9 8 8 7 8 10 10 11 14 13 13 12 12 14 16 16 16 17 18 18 18 17 17 16 16 16 15 16 16 15 14 12 14 14 14 14 14 14 13 15 16 15 15 16 16 15 17 25 22 27 26 27 27 27 25 16 13 13 12
11 12 12 9 8 8 7 7 10 13 14 13 12 12 13 15 16 16 17 18 17 18 17 16 16 17 17 16 16 17 17 17 16 15 13 14 13 15 16 14 14 15 14 15 15 15 16 17 16 15 18 24 23 28 29 28 29 27 26 17 13 14
9 10 12 12 8 8 8 8 7 12 13 13 12 13 13 15 17 17 18 18 16 16 17 18 18 17 16 17 15 16 16 17 16 17 16 15 15 16 16 16 15 15 15 15 15 15 17 17 16 16 15 15 17 19 25 29 27 26 26 23 16 18
9 11 12 14 10 7 7 8 8 9 11 12 13 13 13 15 16 17 17 17 16 17 16 16 15 15 15 15 14 13 13 14 14 14 15 15 14 14 14 15 15 15 15 16 15 16 16 17 15 16 15 15 16 15 14 15 16 21 23 18 15 17
10 12 13 13 11 10 9 9 9 10 12 12 12 13 15 15 15 16 16 17 15 15 14 15 19 18 15 14 13 14 14 13 13 14 15 14 14 14 16 15 15 16 15 15 15 15 15 16 16 16 15 16 14 13 12 11 11 11 11 12 12 12
10 11 12 13 12 11 11 10 10 11 12 10 11 13 15 17 19 17 18 16 15 14 14 14 14 14 14 15 15 14 14 14 15 15 16 16 14 15 17 17 18 18 16 15 16 17 17 17 18 18 18 20 22 20 16 14 12 10 11 13 17 13
10 12 13 12 11 11 12 12 12 12 11 13 13 12 15 16 17 17 16 14 14 15 14 13 13 13 14 15 15 15 15 18 24 21 18 17 23 30 32 28 21 19 16 16 16 15 17 17 17 23 29 28 28 29 30 27 27 23 16 16 21 15
11 12 12 12 10 11 12 13 14 14 13 11 12 13 14 15 16 16 15 14 13 15 15 15 15 14 14 14 15 15 16 16 14 22 29 30 30 30 31 32 34 36 34 26 22 21 34 36 38 36 34 33 32 31 31 30 28 29 28 25 15 13
11 12 12 11 11 12 13 15 15 13 13 12 12 12 13 14 16 16 15 15 15 16 16 15 15 15 15 14 14 15 16 16 16 16 20 26 28 29 30 30 32 33 32 34 32 27 20 26 32 34 34 34 34 33 32 32 31 32 32 30 27 15
10 11 12 12 13 15 14 15 15 14 13 13 12 13 14 15 16 17 17 16 16 15 16 15 15 15 14 15 15 15 15 16 16 17 16 15 22 27 28 30 31 32 32 33 33 34 32 32 33 36 36 35 33 32 30 31 33 33 32 31 22 15
11 11 12 14 14 14 15 16 16 14 13 13 14 14 14 15 15 16 15 15 16 16 15 15 14 14 14 14 14 14 15 15 16 16 16 17 15 15 19 23 27 28 30 31 31 32 32 31 31 31 32 32 31 32 31 30 24 29 31 27 17 15
12 12 12 14 14 14 14 15 15 14 14 14 14 14 14 14 16 16 18 25 21 14 14 14 14 14 14 14 14 14 14 15 15 15 16 16 16 16 16 15 15 20 25 22 22 26 30 31 31 31 29 30 30 30 30 28 20 19 14 15 17 17
12 13 12 11 13 14 15 16 15 15 15 14 13 13 14 14 15 15 14 15 16 14 13 13 13 13 13 14 14 14 14 15 15 15 15 15 16 16 16 15 14 13 17 29 28 30 29 30 29 27 28 27 28 27 25 17 16 14 14 13 12 14
Wind_Direction
25 20 17 15 16 17 21 17 17 24 28 28 32 33 32 27 24 26 33 30 24 16 13 7 5 6 2 354 349 338 331 326 319 315 313 308 303 300 295 285 275 266 257 245 241 240 236 232 232 228 229 222 229 227 232 227 229 233 231 228 224 228
22 12 4 5 7 8 8 10 11 18 15 16 19 22 26 28 27 22 20 23 27 23 21 19 15 9 1 353 353 345 340 333 324 319 321 316 313 303 297 288 281 275 269 255 243 236 235 235 232 229 230 228 231 230 229 227 223 232 235 233 226 227
14 2 3 359 5 11 13 12 14 12 11 11 11 14 11 15 17 13 9 6 6 10 12 9 10 10 7 1 360 352 346 344 334 340 333 320 313 311 299 292 289 288 282 273 261 248 240 235 234 229 230 232 234 232 233 234 230 231 234 231 232 226
11 8 10 10 13 16 17 17 14 13 10 8 7 12 12 2 358 358 352 356 354 359 356 349 345 353 355 4 6 3 2 353 350 344 339 335 325 326 316 310 301 292 287 284 280 273 259 247 239 232 228 231 234 235 231 235 235 236 236 234 236 228
334 342 339 353 5 5 15 13 18 14 9 8 7 8 2 0 348 346 346 346 350 356 357 355 348 342 338 344 349 360 356 358 358 351 350 338 330 325 318 314 319 313 309 301 290 281 275 267 259 247 235 232 233 237 235 231 232 235 238 237 235 233
326 323 334 327 341 342 332 348 343 358 4 7 2 360 355 348 345 340 341 339 344 344 346 348 347 349 354 355 352 354 349 348 355 345 349 342 329 329 322 323 320 318 313 310 300 291 284 276 266 260 250 245 241 240 240 235 231 234 239 241 241 237
295 301 314 312 310 335 320 328 331 316 325 347 340 343 338 336 332 334 332 332 336 340 347 345 347 345 348 351 348 349 346 351 349 344 339 334 331 330 332 327 332 327 320 310 305 301 294 287 279 273 266 257 247 246 247 245 239 236 237 239 242 242
297 316 326 303 316 317 308 299 300 304 309 318 314 318 320 313 324 312 321 320 326 327 337 338 340 341 344 343 340 342 344 343 341 341 339 339 334 333 333 330 331 330 319 313 301 294 294 294 289 282 278 273 265 259 254 252 249 246 242 240 241 242
299 313 319 319 322 316 306 304 303 303 306 303 312 314 316 317 319 321 321 323 323 321 330 334 336 335 335 335 333 333 332 333 329 325 333 333 328 334 336 333 326 315 305 298 294 287 286 286 286 285 282 279 275 271 270 266 259 254 249 248 247 243
316 327 332 338 336 333 330 330 322 325 325 324 321 331 330 323 326 317 318 316 320 317 324 324 321 324 328 329 329 331 329 328 326 325 320 319 324 331 336 329 325 317 305 293 287 282 277 269 271 273 275 276 277 276 272 269 267 265 260 255 251 248
280 292 301 309 316 322 327 330 331 331 331 330 332 336 339 335 332 324 324 325 320 322 319 316 318 314 323 325 326 329 331 328 324 323 320 318 311 308 309 309 312 310 305 298 291 287 277 266 255 256 264 272 271 266 267 269 270 269 268 265 259 253
267 272 280 286 290 296 303 308 312 319 322 323 328 332 333 340 332 330 327 327 326 328 327 318 316 317 322 326 325 330 329 324 319 316 315 313 310 310 301 291 288 288 288 295 293 285 277 267 255 244 246 251 258 265 266 265 262 264 267 270 270 265
266 267 265 267 275 280 285 286 287 292 293 296 303 309 320 330 324 321 323 320 322 325 323 321 319 324 321 315 318 317 325 321 318 314 311 307 304 305 303 302 299 289 290 290 288 289 285 274 265 263 257 252 256 257 258 257 259 257 259 261 264 267
257 260 264 268 268 266 265 265 266 270 273 279 287 291 303 305 300 306 306 311 314 318 319 317 317 315 312 313 312 316 312 308 304 302 303 305 308 308 309 303 297 298 297 289 288 286 283 285 278 274 273 271 273 267 260 256 255 253 254 256 258 261
255 257 259 261 260 261 256 256 256 255 255 260 261 267 271 277 283 288 292 296 301 302 305 307 307 301 293 283 283 287 295 303 310 308 297 291 296 302 302 304 305 300 296 293 293 290 285 279 273 274 277 274 271 271 267 261 255 252 252 252 254 257
248 248 247 248 248 247 249 244 248 250 252 254 255 252 252 258 265 269 276 278 276 283 287 295 295 295 294 299 298 295 291 298 298 298 297 295 293 289 291 290 290 293 296 297 298 294 288 280 278 278 274 273 272 273 271 260 259 256 254 254 252 253
256 255 257 256 254 252 246 244 239 244 250 252 255 256 259 260 268 271 275 280 279 279 279 279 280 280 283 288 293 299 301 303 304 304 301 289 283 287 290 292 290 285 284 290 293 291 287 283 277 276 273 274 275 274 274 265 261 259 256 255 253 252
276 269 266 265 262 256 254 260 266 269 275 283 284 281 276 274 273 272 275 277 275 274 268 273 275 273 264 264 274 284 287 289 293 299 299 290 284 282 285 282 283 290 291 285 279 280 282 282 280 278 274 272 274 276 275 270 264 262 259 258 255 252
304 293 289 290 297 311 316 318 329 337 331 322 310 303 293 286 279 275 275 276 276 277 277 276 275 274 267 256 267 271 274 279 285 287 286 282 281 283 282 284 284 283 282 286 284 279 277 275 274 275 273 272 272 273 268 269 268 266 264 261 259 256
349 357 357 345 343 345 8 23 18 352 325 308 302 298 293 290 284 280 283 281 279 280 277 275 275 275 269 264 266 268 265 270 275 278 277 273 275 277 281 283 284 282 278 276 278 274 274 276 272 272 272 271 271 265 262 263 264 263 263 266 262 258
350 339 338 343 344 1 14 357 350 337 316 305 299 295 293 292 292 294 294 291 287 287 289 288 285 279 275 270 270 273 277 278 275 277 278 268 266 271 278 276 276 280 280 276 273 274 272 271 274 273 270 267 265 262 254 256 259 261 261 261 263 260
352 344 346 346 341 345 343 338 329 325 318 311 306 302 299 299 301 304 301 296 294 297 297 295 290 284 282 282 283 281 280 280 276 272 269 265 266 274 274 274 271 275 277 277 277 276 276 275 274 272 269 263 259 254 247 248 252 255 260 258 261 264
346 334 327 327 334 340 341 340 331 325 324 317 309 304 305 307 309 307 303 303 303 301 298 295 292 292 289 286 288 286 280 274 274 277 274 273 271 270 271 271 273 274 275 275 274 274 271 266 266 268 267 264 258 249 241 242 242 249 254 260 259 257
330 325 329 337 342 340 338 337 325 317 316 312 307 313 315 316 314 312 308 302 298 297 295 293 291 289 286 284 282 280 278 276 274 273 275 273 272 273 272 272 272 271 272 271 270 269 268 266 263 264 266 264 259 253 240 236 241 239 249 253 254 254
329 329 329 336 338 337 339 336 322 316 315 309 313 318 319 320 316 308 300 295 295 295 294 293 291 290 287 284 282 279 278 278 275 272 271 271 272 272 273 270 268 266 266 268 268 266 267 264 264 259 257 256 255 252 246 237 237 241 241 243 251 250
327 320 323 331 334 337 339 339 324 318 317 311 319 318 319 319 313 308 302 301 301 302 300 299 298 295 292 289 288 284 279 277 274 271 264 264 266 267 263 266 265 262 263 268 267 264 265 266 264 261 257 254 254 253 249 243 237 236 237 235 245 250
322 321 316 326 337 333 336 336 323 315 310 312 321 320 321 316 314 311 305 305 305 303 302 301 298 296 294 291 288 286 282 277 277 273 265 260 252 258 261 258 258 259 260 261 260 265 271 271 271 269 266 261 252 253 250 245 242 239 236 238 242 246
322 316 315 319 338 329 330 327 326 312 308 315 316 315 315 313 311 306 302 303 300 300 302 302 299 295 292 291 289 284 280 279 279 274 273 268 268 262 258 256 255 254 257 259 260 260 264 268 268 269 267 266 265 260 255 251 246 242 239 236 237 240
319 315 316 311 324 328 320 321 315 308 308 311 311 310 309 308 303 298 297 298 299 298 299 296 294 296 296 293 290 284 282 282 281 277 276 274 272 272 269 267 264 262 260 259 261 265 267 266 266 267 267 266 265 262 257 252 250 246 244 240 241 244
315 313 315 311 318 319 317 311 305 305 308 306 308 309 307 301 298 295 295 297 296 294 295 292 291 292 292 293 291 290 288 284 281 279 276 276 278 279 278 276 272 268 267 268 267 268 267 264 264 259 259 262 262 268 265 256 250 246 237 239 237 236
312 308 307 304 310 310 307 302 300 304 304 303 305 305 303 301 299 297 295 296 294 292 292 291 291 290 290 290 287 281 279 282 283 280 278 274 274 273 273 274 273 270 271 271 269 268 267 265 262 260 263 264 265 265 269 265 258 251 246 237 234 236
307 304 303 300 304 304 303 301 301 302 306 304 304 305 303 302 301 299 298 297 295 294 293 293 292 290 288 287 286 287 282 274 275 277 277 279 275 273 272 272 272 272 268 266 262 260 265 267 267 272 271 268 267 266 263 261 262 258 249 240 235 230
304 298 296 297 302 303 305 303 305 308 309 306 303 303 300 302 301 299 297 296 294 295 296 295 292 289 287 286 286 286 287 290 281 277 279 279 281 280 278 278 278 278 278 276 277 271 266 266 268 269 269 270 269 267 268 269 269 266 264 258 250 240
305 302 302 305 306 304 304 301 300 304 303 301 299 298 299 299 298 296 296 296 294 295 293 289 288 288 287 287 285 286 288 288 290 286 278 280 283 283 283 282 282 282 283 283 282 282 279 278 278 276 272 268 265 263 264 264 263 260 259 259 252 243
303 306 305 303 301 299 299 299 298 301 299 299 300 301 296 294 294 294 293 291 291 290 289 289 288 287 287 287 287 287 287 288 289 290 293 284 282 285 286 285 285 284 284 284 284 284 286 289 287 283 281 280 280 278 272 264 259 256 255 255 251 239
301 298 294 293 294 294 295 295 295 296 296 300 298 295 290 289 287 286 288 288 289 289 288 286 284 285 286 285 286 286 287 286 286 288 290 294 295 289 284 282 283 284 285 285 285 285 285 285 284 286 287 284 281 279 279 279 279 273 259 247 243 239
296 293 287 287 289 291 291 290 293 296 297 296 294 290 289 287 288 289 286 286 286 285 284 283 284 285 284 285 285 285 285 285 287 287 289 290 291 292 291 292 287 285 284 284 284 284 284 283 283 281 281 282 279 275 273 276 274 267 266 257 245 237
292 288 285 279 285 285 288 291 295 298 297 293 290 289 288 288 288 288 288 288 287 285 283 284 285 284 284 284 283 283 283 284 284 285 284 285 285 286 288 288 286 288 290 290 288 285 286 287 288 286 284 282 278 272 265 256 253 263 261 257 253 240